Погода в Гаврах

Россия / Псковская область     56°52′34″N   28°10′26″E
темп.,
°C
ветер,
м/с
пор.,
м/с
влажн.,
%
обл.,
%
осадки,
мм/ч
давл.,
гПа
погр.,
м
17 апреля, сб
сб1700:00+10всв51175100 0.0 1022535
03:00+7св41179100 0.0 1022406
06:00+6св4117970 0.0 1022425
09:00+8всв4973100 0.0 1023507
12:00+10всв4770100 0.0 1024721
15:00+14всв4761100 0.0 10241288
18:00+13св4968100 0.0 10231251
21:00+12ссв4107550 0.0 1023459
18 апреля, вс
вс1800:00+9св4117979 0.0 1024379
03:00+7ссв4107630 0.0 1024299
06:00+5ссв310795 0.0 1024315
09:00+8св59612 0.0 1024587
12:00+13св68420 0.0 10241204
15:00+15всв67385 0.0 10241706
18:00+14всв57435 0.0 10231834
21:00+9св310635 0.0 1024209
19 апреля, пн
пн1900:00+7св311715 0.0 1025293
03:00+5всв310774 0.0 1026262
06:00+3всв38875 0.0 1026204
09:00+8всв46685 0.0 1026474
12:00+12всв585119 0.0 10251658
15:00+14всв574195 0.0 10242310
18:00+11всв4858100 0.0 1024884
21:00+9всв386878 0.1 1023414
20 апреля, вт
вт2000:00+8в3878100 0.2 1023467
03:00+7всв378490 0.3 1022419
06:00+5всв3985100 0.0 1021475
09:00+6всв4878100 0.0 1019658
12:00+8всв467288 0.1 1018888
15:00+9всв466286 0.1 10161298
18:00+10св4754100 0.0 10141601
21:00+8св3864100 0.0 1011478
21 апреля, ср
ср2100:00+6ссв51076100 0.0 1007927
03:00+4ссв51197100 3.5 1003833
06:00+3с51097100 4.5 1001750
09:00+3ссз4897100 5.8 999585
12:00+3сз4797100 0.3 998496
15:00+3зсз4797100 1.3 999481
18:00+3з4897100 0.4 1000584
21:00+3з4997100 0.9 1002679